Historique des stations

Station météo de La Riche







Données météorologiques pour le 04/12/2022
Date
Heure
Températures Humidité Point de rosée Vitesse
du vent
Direction Rafales Windchill Pression Pluviométrie
Cumul
Date
Heure
Températures Humidité Point de rosée Vitesse
du vent
Direction Rafales Windchill Pression Pluviométrie
Cumul
04/12/2022 15:475.2 °C88 %3.3 °C---5.0 1011 hPa-
04/12/2022 15:325.2 °C89 %3.3 °C---5.0 1011 hPa-
04/12/2022 15:165.1 °C89 %3.3 °C---5.0 1011 hPa-
04/12/2022 15:025.1 °C89 %3.3 °C---5.0 1011 hPa-
04/12/2022 14:475.0 °C94 %3.9 °C---5.0 1011 hPa-
04/12/2022 14:325.0 °C89 %3.3 °C---5.0 1011 hPa-
04/12/2022 14:175.0 °C94 %3.9 °C---5.0 1011 hPa-
04/12/2022 14:024.9 °C89 %3.3 °C---5.0 1011 hPa-
04/12/2022 13:474.9 °C89 %3.3 °C---5.0 1011 hPa-
04/12/2022 13:324.9 °C89 %3.3 °C---5.0 1011 hPa-
04/12/2022 13:174.8 °C90 %3.3 °C---5.0 1011 hPa-
04/12/2022 13:024.7 °C90 %3.3 °C---4.4 1011 hPa-
04/12/2022 12:474.6 °C89 %2.8 °C---4.4 1011 hPa-
04/12/2022 12:324.6 °C89 %2.8 °C---4.4 1011 hPa-
04/12/2022 12:174.5 °C89 %2.8 °C---4.4 1011 hPa-
04/12/2022 12:024.3 °C89 %2.8 °C---4.4 1011 hPa-
04/12/2022 11:474.3 °C90 %2.8 °C---4.4 1011 hPa-
04/12/2022 11:324.2 °C90 %2.8 °C---4.4 1011 hPa-
04/12/2022 11:174.1 °C90 %2.8 °C---3.9 1011 hPa-
04/12/2022 11:024.1 °C90 %2.8 °C---3.9 1011 hPa-
04/12/2022 10:474.0 °C90 %2.8 °C---3.9 1011 hPa-
04/12/2022 10:323.9 °C90 %2.8 °C---3.9 1011 hPa-
04/12/2022 10:173.9 °C90 %2.2 °C---3.9 1011 hPa-
04/12/2022 10:023.8 °C90 %2.2 °C---3.9 1011 hPa-
04/12/2022 09:473.8 °C90 %2.2 °C---3.9 1010 hPa-
04/12/2022 09:323.7 °C89 %2.2 °C---3.9 1010 hPa-
04/12/2022 09:173.7 °C89 %2.2 °C---3.9 1010 hPa-
04/12/2022 09:023.6 °C89 %2.2 °C---3.9 1010 hPa-
04/12/2022 08:473.6 °C89 %2.2 °C---3.9 1010 hPa-
04/12/2022 08:323.6 °C89 %2.2 °C---3.3 1010 hPa-
04/12/2022 08:173.6 °C89 %2.2 °C---3.3 1010 hPa-
04/12/2022 08:023.6 °C89 %2.2 °C---3.3 1010 hPa-
04/12/2022 07:493.6 °C89 %2.2 °C---3.3 1010 hPa-
04/12/2022 07:333.6 °C89 %2.2 °C---3.3 1010 hPa-
04/12/2022 07:183.6 °C89 %2.2 °C---3.3 1010 hPa-
04/12/2022 07:043.6 °C89 %2.2 °C---3.3 1010 hPa-
04/12/2022 06:483.6 °C89 %2.2 °C---3.3 1010 hPa-
04/12/2022 06:333.5 °C89 %1.7 °C---3.3 1010 hPa-
04/12/2022 06:183.5 °C89 %1.7 °C---3.3 1010 hPa-
04/12/2022 06:033.5 °C89 %1.7 °C---3.3 1010 hPa-
04/12/2022 05:483.4 °C89 %1.7 °C---3.3 1010 hPa-
04/12/2022 05:333.4 °C89 %1.7 °C---3.3 1010 hPa-
04/12/2022 05:183.4 °C89 %1.7 °C---3.3 1010 hPa-
04/12/2022 05:033.4 °C88 %1.7 °C---3.3 1010 hPa-
04/12/2022 04:483.4 °C88 %1.7 °C---3.3 1010 hPa-
04/12/2022 04:333.4 °C88 %1.7 °C---3.3 1010 hPa-
04/12/2022 04:183.4 °C89 %1.7 °C---3.3 1010 hPa-
04/12/2022 04:033.4 °C89 %1.7 °C---3.3 1010 hPa-
04/12/2022 03:483.4 °C89 %1.7 °C---3.3 1010 hPa-
04/12/2022 03:333.5 °C89 %1.7 °C---3.3 1010 hPa-
04/12/2022 03:183.6 °C89 %2.2 °C---3.3 1010 hPa-
04/12/2022 03:033.6 °C89 %2.2 °C---3.3 1010 hPa-
04/12/2022 02:483.6 °C89 %2.2 °C---3.3 1010 hPa-
04/12/2022 02:333.6 °C89 %2.2 °C---3.9 1010 hPa-
04/12/2022 02:183.7 °C89 %2.2 °C---3.9 1010 hPa-
04/12/2022 02:033.7 °C89 %2.2 °C---3.9 1010 hPa-
04/12/2022 01:473.7 °C88 %2.2 °C---3.9 1011 hPa-
04/12/2022 01:333.7 °C88 %2.2 °C---3.9 1010 hPa-
04/12/2022 01:173.7 °C88 %2.2 °C---3.9 1011 hPa-
04/12/2022 01:013.8 °C88 %2.2 °C---3.9 1011 hPa-
04/12/2022 00:473.8 °C88 %2.2 °C---3.9 1011 hPa-
04/12/2022 00:323.8 °C88 %2.2 °C---3.9 1011 hPa-
04/12/2022 00:173.9 °C87 %2.2 °C---3.9 1011 hPa-
04/12/2022 00:014.1 °C87 %2.2 °C---3.9 1011 hPa-


Minima :

Température : 3.4 °C
Humidité : 87 %
Point de rosée : 1.7 °C
Vent moyen : - km/h
Windchill : 3.3
Pression atm. : 1010 hPa
Maxima :

Température : 5.2 °C
Humidité : 94 %
Point de rosée : 3.9 °C
Vent moyen : 0 km/h
Windchill : 5.0
Pression atm. : 1011 hPa
Rafales max : - km/h
Cumul de pluie sur 24H : 0 mm

La Riche est une commune du département Indre-et-Loire (37).
La station météorologique du réseau de l'association la plus proche de La Riche n'a pas encore été identifiée.



Icône Facebook Association Météo Centre Icône Twitter Association Météo Centre Icône Chaîne Youtube Association Météo Centre Icône contact Association Météo Centre Icône Insta Association Météo Centre